CAPE
1200 1326 1359 1461 1668 1812 1811 1681 1576 1521 1439 2098 2031 1844 2017 2302 2523 2572 2562 2593 2594 2482 2324 2354 2341 2494 2701 2677 2616 2816 2720 2657 2586 2755 2411 2330 2081 1926 1627 1565 1549 1874 1600 1658 1806 2082 2392 2684 2951 2985 2624 2363 2356 2269 2086 1971 1976 1868 2023 1978 1841 1697 1590 1529 1530 1408 1411 1251 1181 1124 1057 1111 1287 1595 1552 1525 1499 1605 1711 1758 1782 1756 1760 1845 1856
1337 1454 1590 1662 1749 1975 2033 1947 2045 1795 1858 2102 2209 1995 1902 2212 2228 2211 2486 2500 2412 2432 2460 2504 2706 2562 2785 2891 2767 2604 2416 2546 2174 2116 2297 2297 1917 1809 1547 1569 1720 1957 1871 1721 2114 2396 2776 2980 2751 2687 2457 2027 1956 1853 1866 2146 2032 1948 1858 1637 1596 1571 1441 1355 1412 1314 1232 1223 1058 964 877 732 695 891 1114 1300 1427 1521 1598 1698 1796 1862 1852 1792 1715
1461 1540 1792 1838 1888 2033 2162 2180 2092 2019 2060 2109 2376 2226 2096 2048 2279 2414 2477 2451 2455 2486 2621 2753 2973 2682 2592 2673 2640 2382 2198 2161 1781 1771 1808 1589 1867 1956 2147 1963 2108 2224 2391 2518 2426 2520 2362 2395 2451 2317 1472 1460 1198 1229 1409 1747 2033 1898 1748 1627 1516 1221 1142 1289 1399 1358 1247 1145 1067 1005 864 486 455 482 1034 1021 1246 1405 1502 1540 1546 1544 1510 1411 1251
1532 1686 1826 1968 2019 2010 2142 2309 2245 2371 2320 2317 2526 2444 2471 2252 2444 2988 2778 2678 2875 3227 2732 2714 2811 2797 2571 2298 2108 2136 2020 2485 1728 128 51 652 1045 2086 2630 2404 2502 2556 2674 2432 2129 1711 1729 1589 1218 950 867 1043 1245 1375 1426 1566 1772 1729 1636 1514 1294 1152 1326 1396 1337 1159 1105 1017 790 932 835 616 374 428 552 369 432 666 718 1228 1177 1072 846 736 809
1530 1690 1784 1937 2109 2069 2109 2320 2347 2509 2415 2594 2642 2703 2881 2514 2591 3103 2903 2895 3022 3767 2836 2657 3335 2555 2287 2486 2092 1710 929 792 9 39 157 420 161 613 1387 1884 1797 1146 610 507 558 457 617 625 611 794 926 1170 1354 1234 953 988 1344 1518 1448 1343 1339 1382 1252 1222 1257 1307 1053 848 885 772 711 561 602 461 342 355 652 398 366 436 551 651 1150 702 423
1541 1698 1787 1843 2049 2078 2095 2199 2338 2520 2478 2741 2910 2885 2941 2810 2743 2919 2977 2783 2995 3539 2718 2803 3595 2614 2404 1952 1445 608 468 378 1 6 60 142 178 308 414 270 239 222 237 204 278 338 359 629 652 824 822 1143 1256 978 907 1022 1120 1462 1495 1371 1305 1398 1373 1267 1102 870 898 1006 1064 935 704 540 437 459 410 561 446 476 504 481 453 277 208 423 536
1532 1694 1766 1843 1958 2048 2039 2066 2295 2571 2484 2802 3114 3046 3001 3054 2885 2820 2934 3003 2905 3403 2877 2822 2857 2433 1906 1210 696 570 299 218 28 0 1 78 106 53 41 204 55 62 110 112 191 424 451 633 612 656 742 1143 1865 960 934 997 1029 1594 1664 1441 1432 1393 1349 1177 985 848 749 997 1107 816 764 779 721 616 620 414 370 408 388 203 143 170 186 270 357
1558 1685 1734 1819 1937 2052 2042 2015 2090 2540 2528 2897 3137 3201 3008 3241 2994 2951 2997 3064 2977 3071 2853 2587 2323 1804 1221 475 523 596 249 202 162 41 283 480 2 0 2 233 324 77 209 139 202 362 637 562 556 657 716 1062 1329 1002 1028 1088 1121 1427 1685 1379 1542 1349 1387 1220 961 815 807 883 959 869 792 800 810 725 608 486 329 219 149 128 125 213 92 81 152
1494 1652 1768 1788 1893 2018 2067 2076 2034 2390 2622 3032 3096 3186 3162 3255 3110 3015 3049 3126 2810 2747 2643 2316 1911 1400 575 28 130 139 63 83 601 746 191 159 0 50 90 264 229 70 80 227 394 507 1319 398 550 503 540 905 2061 1170 1130 1030 923 926 1007 1062 1052 1372 1416 1261 948 916 958 921 810 815 783 692 583 508 443 398 313 222 160 93 70 54 40 44 141
1310 1454 1692 1757 1765 1851 1954 2031 2010 2303 2777 3101 3118 3120 3183 3283 3213 3161 2958 2865 2641 2509 2460 1785 1082 826 56 0 21 287 587 427 176 156 109 130 106 304 267 89 3 26 205 194 135 364 484 588 329 369 432 824 1342 956 1096 1104 1047 961 1118 1204 1144 1113 1356 1236 1005 913 746 779 747 784 556 506 589 470 495 351 282 275 160 133 94 72 56 56 36
1145 1244 1429 1528 1500 1610 1817 1919 1950 2338 2862 3124 3204 3090 3062 3226 3157 3129 2807 2716 2426 2164 1822 1439 607 13 0 0 36 42 38 108 4 118 287 470 171 219 92 12 0 23 234 152 250 452 521 673 258 340 496 1176 1087 679 838 1070 1026 870 834 761 836 832 1127 1017 1025 938 925 812 753 678 470 337 361 298 200 198 224 244 179 96 56 41 85 96 86
1000 1071 1191 1293 1262 1359 1664 1788 1906 2445 2939 3142 3243 3145 3117 3042 3088 2920 2494 2421 2186 1930 1641 722 49 0 0 12 75 38 38 132 2 26 188 375 141 117 18 20 64 234 236 235 379 318 214 171 692 331 486 472 498 595 969 1011 1077 831 848 776 812 837 842 857 772 725 790 696 658 478 317 351 467 365 247 250 308 382 180 61 63 56 35 48 64
821 937 1043 1111 1113 1212 1416 1591 1859 2540 2987 3126 3193 3157 3120 2974 2918 2723 2464 2254 2005 1434 828 30 2 16 21 45 77 59 100 2 0 5 3 39 44 54 83 88 224 78 134 281 164 221 274 187 271 225 266 394 717 783 929 921 1123 908 796 878 916 937 865 989 1043 877 764 594 474 445 348 285 268 269 320 359 426 482 317 68 18 42 41 7 1
741 863 1002 1060 1070 1104 1274 1458 1963 2502 2936 3081 3112 3034 2936 2840 2834 2714 2459 2195 1849 1158 31 15 0 52 239 31 21 229 4 0 0 0 1 17 3 0 0 4 38 0 31 182 110 117 321 252 427 267 247 257 523 804 796 825 856 876 975 814 862 813 893 1201 1039 783 778 745 629 627 471 335 297 325 416 483 527 427 219 104 75 41 8 0 0
772 811 940 1047 1091 1107 1242 1438 2044 2444 2804 3028 3060 3003 2912 2790 2731 2656 2362 2058 1675 620 53 43 0 18 202 89 42 7 3 29 15 17 84 0 0 0 0 0 0 0 13 66 163 208 171 219 271 212 259 381 614 943 1085 880 946 1187 940 774 807 784 943 815 657 637 644 697 719 734 586 460 400 431 514 508 540 488 305 203 116 6 0 0 0
788 812 865 964 1078 1092 1256 1461 2061 2373 2658 2916 2986 2922 2759 2617 2614 2581 2275 1708 1136 342 171 114 122 166 437 190 3 87 347 32 235 236 0 0 0 0 0 3 1 0 4 156 187 184 118 285 432 324 189 275 374 460 610 714 832 875 613 597 628 885 844 818 796 788 791 840 889 791 690 580 534 450 415 474 554 465 356 295 160 39 8 2 0
793 808 850 938 1001 1160 1300 1540 2011 2290 2521 2695 2723 2616 2475 2457 2491 2484 2103 1406 365 346 339 206 274 599 360 52 6 229 212 16 26 26 0 0 36 5 4 0 0 3 68 298 52 85 116 122 121 135 196 216 228 370 467 486 675 755 629 570 648 675 853 950 840 844 936 981 882 798 485 197 135 349 573 653 575 447 302 79 30 59 132 27 6
735 800 839 879 966 1247 1338 1616 1987 2233 2444 2515 2488 2433 2372 2340 2322 2256 1892 1141 388 320 606 515 438 838 766 715 612 212 35 0 0 0 0 30 78 1 0 0 0 10 158 300 164 142 97 892 147 180 230 281 350 426 417 461 592 641 656 712 681 778 902 841 845 1012 961 815 747 687 446 195 111 302 410 515 533 150 92 77 54 26 130 30 10
651 710 777 862 1014 1305 1371 1656 1966 2212 2395 2395 2374 2335 2302 2262 2121 1919 1553 867 584 410 446 805 691 882 962 904 768 542 0 0 0 0 2 10 15 1 0 0 0 18 224 132 84 22 39 76 198 174 183 290 232 290 461 534 562 533 656 707 683 797 813 759 748 865 922 872 758 644 512 331 146 254 294 431 234 75 1 26 17 27 63 39 1
615 706 758 808 1052 1369 1467 1692 1921 2162 2357 2325 2276 2244 2205 2124 1930 1685 1234 651 717 696 700 826 973 907 980 900 731 528 1 0 0 2 1 0 0 0 0 0 0 89 72 89 67 50 20 3 22 96 110 76 111 162 262 291 328 301 387 558 554 729 836 784 764 818 842 894 679 419 370 378 104 151 265 101 0 0 0 0 0 0 0 0 0
510 622 724 770 1128 1452 1586 1786 1935 2122 2309 2237 2173 2137 2080 1973 1863 1538 978 795 823 828 827 860 1043 985 862 750 654 574 218 6 0 0 0 0 0 20 0 0 0 0 0 12 4 0 0 0 1 52 5 18 97 244 472 554 554 546 556 578 603 689 736 732 712 534 485 652 434 309 198 167 160 117 201 102 66 123 0 0 0 0 0 0 0
428 556 651 751 1140 1497 1633 1868 1987 2154 2266 2192 2102 2038 1992 1843 1779 1580 901 806 811 927 896 954 1078 1131 996 832 736 640 479 18 1 0 0 0 0 22 15 0 0 0 0 1 0 0 0 3 32 18 33 32 75 185 253 512 652 637 670 739 756 763 701 677 568 541 448 337 304 282 231 183 197 130 19 12 0 0 93 6 0 0 0 0 0
454 533 696 910 1170 1462 1653 1929 2112 2218 2235 2166 2064 2003 1938 1900 1843 1655 1035 599 579 924 1016 962 1071 1131 1048 824 737 639 497 336 17 3 16 10 19 9 10 9 0 0 0 0 0 0 2 24 29 36 32 44 84 145 195 511 650 533 493 546 619 641 672 697 641 518 416 348 250 62 154 208 212 139 14 74 0 0 0 0 0 0 0 0 0
483 582 881 1000 1236 1521 1704 2045 2206 2292 2241 2130 2052 1987 1922 1875 1814 1643 1195 924 684 630 1051 1002 1028 1047 874 733 662 607 518 429 27 31 22 36 72 66 66 2 0 0 0 1 26 19 25 28 23 34 25 27 63 127 238 532 672 681 700 709 620 497 453 401 411 430 371 227 171 192 263 300 283 162 21 0 0 0 0 96 56 0 0 0 0
588 794 1059 1144 1342 1629 1856 2096 2285 2367 2294 2141 2044 1990 1940 1886 1790 1637 1137 1048 838 753 960 1048 1017 968 773 664 652 635 542 454 415 99 124 148 158 134 60 29 0 0 0 0 8 57 38 26 46 28 20 38 85 150 250 572 712 734 773 722 648 595 466 370 240 90 163 79 172 209 210 222 244 204 170 0 0 0 0 0 0 0 0 0 0
756 921 1210 1300 1444 1830 2024 2167 2292 2386 2357 2236 2105 2050 2006 1934 1834 1651 1472 1055 906 1130 1088 1105 1037 896 754 703 714 670 570 510 494 488 165 166 135 43 0 0 0 0 0 0 0 0 12 0 2 15 15 36 68 112 199 272 528 753 797 791 744 583 510 353 150 16 16 11 26 104 141 228 260 198 23 0 0 0 0 0 0 0 0 110 0
925 970 1223 1388 1523 1980 2235 2283 2333 2379 2413 2325 2225 2126 2058 1996 1904 1795 1692 1532 1180 1124 1171 1099 1078 1027 843 747 715 634 586 607 620 562 452 50 23 1 0 0 0 0 0 0 0 0 4 0 8 23 17 29 18 19 83 174 317 678 855 835 703 614 547 333 124 80 78 92 117 168 220 262 215 0 0 0 0 0 0 0 0 0 3 179 16
1005 1020 1166 1409 1518 1828 2268 2431 2394 2386 2394 2355 2276 2194 2133 2089 2046 1985 1913 1760 1449 1227 1312 1150 1086 1041 896 782 745 701 698 729 676 592 201 1 0 0 0 0 0 0 0 0 0 0 0 11 0 0 0 0 0 0 0 3 161 608 837 835 781 677 428 255 131 88 104 162 208 214 72 0 0 0 0 0 0 0 0 0 0 0 134 250 266
828 1010 1150 1362 1557 1617 1956 2370 2483 2456 2436 2370 2322 2281 2228 2229 2180 2123 2009 1660 1560 1444 1352 1271 1156 1042 911 853 838 817 798 781 614 540 6 0 0 0 0 0 0 0 0 0 0 0 0 0 0 0 0 0 0 0 0 2 233 615 830 851 765 592 383 296 234 195 210 167 6 2 1 0 62 180 4 0 0 0 0 0 0 237 268 302 325
847 844 1021 1249 1501 1609 1662 1975 2372 2552 2574 2533 2494 2426 2402 2389 2352 2235 1984 1712 1658 1581 1362 1359 1187 1025 925 895 872 841 760 538 115 52 18 3 0 0 0 0 0 0 6 39 5 0 0 0 0 0 0 0 11 44 281 306 537 651 722 685 570 445 414 397 374 404 317 89 0 0 60 406 290 185 360 418 261 420 402 368 352 344 397 417 424
1093 1020 946 978 1127 1448 1640 1692 1912 2299 2525 2577 2556 2523 2449 2392 2273 2066 1890 1722 1749 1659 1446 1342 1177 966 933 903 768 728 612 460 534 539 10 0 0 0 0 0 0 1 7 21 51 1 4 0 0 0 0 0 0 5 50 134 519 695 537 114 162 399 468 560 653 626 53 36 15 0 124 365 639 575 578 528 478 446 465 454 430 451 540 576 546
1590 1191 1160 1082 1031 1124 1450 1637 1716 1884 2156 2316 2360 2325 2248 2145 2041 1894 1752 1707 1696 1580 1296 1322 1180 1029 986 919 819 670 432 572 609 591 15 0 0 0 0 0 0 4 5 12 20 8 0 0 0 0 0 0 0 6 3 2 49 375 558 565 502 507 558 612 676 495 276 8 20 237 297 312 362 408 440 457 448 446 449 466 503 590 692 712 635
2236 1768 1427 1385 1293 1198 1317 1533 1601 1721 1864 2037 2137 2120 2100 2032 2018 1966 1912 1700 1611 1434 1181 1208 1164 1109 1078 1021 1008 852 717 677 668 621 12 0 0 0 2 5 12 14 13 53 198 30 5 0 5 20 16 10 16 19 3 0 0 0 5 418 431 404 383 385 355 310 263 236 256 314 336 327 359 433 590 470 384 322 322 376 508 646 690 681 653
2462 2489 2060 1747 1618 1579 1528 1454 1558 1606 1641 1774 1881 1938 1959 2021 2111 2122 2046 1805 1502 1178 986 1056 1069 1096 1121 1078 1123 1052 947 871 802 684 529 10 11 19 21 23 28 32 146 218 220 220 219 199 129 118 43 34 23 29 14 0 0 0 0 3 17 19 132 103 296 287 276 316 347 349 352 442 520 480 267 5 6 9 17 426 574 648 663 622 443
1796 2405 2703 2522 2188 2052 1951 1888 1784 1697 1638 1632 1675 1795 1934 2032 2068 2067 2004 1864 1494 1014 759 754 796 1054 831 931 939 954 1042 1062 883 671 496 384 288 27 36 40 134 219 237 237 245 279 262 236 232 147 46 51 40 83 1 0 0 0 0 0 0 12 40 61 290 358 375 356 356 458 582 639 657 612 506 359 22 13 419 573 670 627 361 0 0
1595 1772 2042 2528 2645 2461 2303 2183 2048 1945 1890 1857 1860 1874 1955 2004 2006 1960 1840 1671 1332 1200 1003 833 709 769 535 548 560 525 829 867 694 479 331 113 33 42 57 178 249 278 281 304 335 350 363 329 230 151 194 194 34 38 0 0 0 0 0 0 0 0 9 72 97 189 186 388 628 703 703 697 689 712 555 225 4 461 629 587 149 0 0 0 0
1244 1938 2148 2251 2423 2420 2302 2167 2049 1974 1941 1938 1980 1989 1968 1924 1829 1712 1571 1481 1231 1260 790 775 693 602 585 601 561 481 377 340 153 104 101 90 128 276 261 282 362 400 399 422 438 452 474 430 285 186 171 62 51 167 109 0 0 0 0 0 0 0 6 30 98 295 591 670 586 558 584 649 712 593 13 0 211 549 0 0 0 0 0 0 0
112 1053 1770 2122 2277 2326 2300 2262 2223 2131 2114 2174 2113 2018 1891 1799 1607 1444 1433 1538 1524 1356 841 699 682 677 631 582 516 411 269 314 326 326 208 308 330 404 441 452 505 535 548 559 554 565 577 578 489 315 175 176 188 86 0 0 0 0 0 40 0 2 56 410 541 439 426 404 286 586 970 778 76 0 0 8 403 0 0 0 0 0 0 0 60
315 817 1113 1630 2070 2205 2275 2416 2460 2425 2311 2262 2133 1986 1709 1602 1498 1447 1555 1428 1341 1244 1113 979 917 898 762 634 595 567 491 467 470 469 465 487 508 499 491 532 598 648 655 679 634 626 662 508 159 266 256 288 238 244 0 0 0 0 86 179 8 162 319 314 331 206 46 0 0 8 12 0 0 0 0 0 0 0 0 0 0 0 0 50 144
2579 2861 2620 2185 1972 2119 2154 2198 2255 2347 2327 2148 2000 1918 1751 1619 1582 1656 1625 1501 1414 1312 1353 1238 1075 972 903 875 817 761 701 640 618 612 481 490 527 538 443 317 562 717 757 722 674 648 670 452 0 8 199 254 172 187 222 0 0 197 260 91 16 255 159 157 188 155 0 0 0 0 0 0 0 0 0 0 0 0 0 0 0 0 0 156 1
3153 3396 3422 3139 2670 2450 2405 2334 2279 2283 2286 2228 2060 1623 1500 1392 1261 1450 1649 1458 1432 1462 1549 1475 1202 1129 1230 1183 1094 982 885 834 856 870 724 684 690 740 740 629 652 770 816 836 876 872 776 591 122 0 49 224 142 61 136 154 258 350 167 175 69 0 168 240 280 184 0 0 0 0 0 0 0 0 0 0 0 0 0 0 0 0 0 1 1
3350 3662 3641 3542 3181 2974 2795 2624 2490 2317 2230 2035 1392 952 1111 1184 848 807 1272 1412 1664 1746 1696 1538 1182 1237 1406 1458 1438 1380 1296 1256 1208 1089 1029 1058 1032 1054 961 636 567 695 775 772 719 715 726 570 227 2 3 0 2 285 383 393 367 206 211 215 124 140 259 264 232 24 0 0 0 0 0 0 0 0 0 0 0 0 0 140 21 0 0 0 0
3208 3426 3565 3560 3520 3362 3203 3092 2885 2722 2601 2099 1307 1028 997 956 832 1310 1490 1610 1730 1726 1614 1286 1110 1340 1479 1567 1583 1573 1528 1472 1431 1409 1423 1381 1275 1220 1153 966 599 606 726 773 696 631 599 476 246 50 0 0 0 18 21 299 189 262 291 237 199 254 235 197 104 0 0 0 0 0 0 0 0 0 0 0 0 0 95 0 0 0 0 0 0
3038 3186 3304 3312 3344 3566 3542 3413 3300 3121 2683 1931 1330 1056 1057 1038 1396 1789 1663 1728 1645 1504 1203 1189 1464 1571 1658 1712 1674 1647 1629 1610 1619 1605 1580 1211 1252 1291 965 782 611 478 586 666 608 501 513 497 358 31 0 0 0 1 61 242 301 352 344 252 199 195 166 192 77 0 0 0 0 0 0 0 0 0 0 0 0 0 0 0 0 0 0 0 0
2898 3016 3126 3085 3029 3091 3294 3374 3253 3165 2736 1973 1357 1278 1432 1443 873 844 1285 1492 1301 952 946 1222 1501 1602 1798 1830 1790 1850 1870 1875 1861 1810 1661 1462 1181 929 926 759 580 525 550 604 605 553 501 504 459 320 0 0 0 11 174 342 385 398 371 271 216 190 0 0 0 0 0 0 0 0 0 0 0 0 0 0 0 0 0 0 12 0 0 0 0
2757 2853 2938 2984 2956 2951 2931 2836 2722 2425 2105 1498 1270 1311 1216 725 557 747 1291 1352 1382 1450 1514 1768 1906 2052 2148 2153 2160 2145 2091 1948 1674 1552 1576 1627 1652 1266 813 671 603 602 626 664 665 603 585 557 506 422 48 0 3 122 524 577 436 422 359 256 191 54 268 0 0 0 0 0 0 0 0 0 0 112 305 0 4 0 0 0 10 7 0 0 0
2596 2592 2757 2884 2950 2981 2915 2586 2086 1579 1356 1259 1209 912 623 111 612 927 1324 1339 831 338 1639 2149 2252 2322 2337 2159 1946 1819 1694 1652 1693 1729 1610 1372 1031 851 728 628 566 545 558 583 596 610 631 641 507 149 0 258 405 559 773 682 472 382 320 264 281 328 149 181 0 0 0 0 0 0 0 37 46 0 83 253 205 0 0 0 0 0 0 0 0
2402 2454 2613 2778 2882 2931 2770 2221 1642 1304 1340 1294 1142 1129 1068 1102 694 900 427 532 1115 1539 1610 1787 1833 1813 1834 1761 1722 1721 1735 1664 1484 1330 1157 929 744 639 589 569 534 513 527 564 580 609 624 588 529 522 426 405 433 558 739 673 514 394 319 268 238 325 327 288 0 0 0 0 0 0 0 112 3 0 32 0 0 0 0 0 0 0 0 0 0
2380 2517 2738 2912 2876 2690 2186 1506 1237 1417 1434 1438 1535 1373 1187 1057 169 238 1301 1553 1569 1816 1831 1870 1905 1875 1887 1774 1684 1444 1370 1248 1094 1046 912 753 690 553 499 509 523 549 594 563 507 496 490 512 477 420 437 485 482 498 539 554 480 400 259 0 10 302 362 50 0 0 0 0 0 0 0 0 0 0 0 0 0 0 0 0 0 0 0 0 0
2133 2338 2325 2052 2136 1953 1357 1093 986 1056 1196 1045 844 784 701 44 22 0 105 737 1284 1690 1739 1911 2098 1919 1838 1620 1479 1486 1256 1213 1074 849 619 489 479 423 464 481 552 514 457 449 479 503 469 358 315 365 364 417 550 570 528 494 471 471 434 303 330 429 397 0 0 0 0 0 0 0 0 0 0 0 0 0 0 0 0 0 0 0 0 0 0
1476 1533 1438 1330 1348 1242 968 947 890 687 510 0 0 42 45 0 0 12 49 382 930 1201 1272 1517 1483 1380 1395 1582 1512 1401 1272 1072 835 648 488 472 442 399 409 392 352 292 308 352 303 250 197 0 0 224 268 307 360 374 383 386 401 417 338 424 490 451 222 91 0 0 0 0 0 1 1 1 0 0 0 0 0 0 0 0 0 0 0 0 0
Wind_Speed
7 7 5 5 6 5 4 5 6 6 5 6 5 4 6 8 10 11 11 11 11 12 13 14 14 13 12 15 14 13 13 11 11 13 14 14 15 16 14 14 14 14 14 15 16 16 16 16 16 15 16 17 17 18 19 19 22 24 25 25 24 24 25 26 27 27 24 24 26 26 25 25 22 20 18 16 16 20 21 21 22 23 22 21 22
10 7 5 3 4 4 3 2 4 6 4 4 5 5 5 6 10 11 10 11 13 13 12 13 12 14 15 16 14 14 14 13 13 14 15 12 14 14 16 17 18 17 16 17 16 18 17 17 17 16 16 16 18 19 19 20 21 23 25 24 26 26 27 27 27 28 27 27 25 24 27 27 25 23 20 18 16 17 19 21 21 22 22 23 23
13 13 10 6 6 5 3 3 3 6 6 6 4 5 5 6 8 9 10 12 11 12 12 11 10 12 13 13 15 14 12 14 13 11 12 13 16 18 19 20 20 18 17 17 17 17 18 18 19 19 20 21 20 19 20 21 23 23 25 27 26 27 28 28 28 30 29 28 28 27 26 25 27 25 23 22 19 18 19 19 21 22 23 25 28
15 16 14 11 9 6 4 3 3 2 3 3 4 6 5 6 7 8 9 10 11 12 12 12 13 13 12 15 15 15 14 13 12 11 nan 15 15 16 17 19 19 19 18 18 19 19 21 22 22 23 22 23 23 23 23 23 25 25 27 28 29 28 30 29 29 31 31 30 27 29 28 28 26 29 25 21 20 20 21 22 24 25 25 29 31
16 16 15 13 12 9 7 5 4 4 3 4 4 4 4 7 8 9 10 12 12 13 14 14 14 13 12 11 12 12 12 14 nan nan 14 15 15 16 17 17 18 19 20 21 22 22 23 24 24 24 24 23 24 24 24 24 25 26 28 28 31 30 31 31 30 31 31 33 33 30 29 29 30 29 25 26 27 24 21 21 25 27 29 29 27
19 18 17 16 14 11 9 7 6 5 5 4 4 5 6 7 9 10 11 12 14 15 17 17 17 17 16 16 16 15 17 19 nan nan nan 17 18 17 18 19 20 21 21 21 21 22 23 24 25 25 24 24 25 25 25 25 25 26 28 29 29 31 32 34 31 30 30 32 34 33 31 31 29 29 28 27 29 28 26 26 26 27 27 27 26
16 17 16 16 15 15 13 11 9 8 6 6 6 7 8 9 10 12 12 13 14 15 17 18 18 18 18 18 18 19 20 15 nan nan nan nan 20 nan nan 20 nan nan 21 22 22 21 23 25 25 26 26 26 26 27 27 27 27 28 29 30 30 32 33 33 33 32 30 33 34 35 34 33 32 30 29 27 22 29 31 28 26 25 28 28 28
19 19 18 17 17 18 17 14 13 12 11 10 10 10 10 11 12 13 13 14 14 16 17 19 20 19 19 19 19 20 21 20 19 nan 21 23 nan nan nan 21 20 nan 23 22 22 24 25 26 26 27 27 27 28 29 29 29 29 29 31 31 32 34 35 35 33 34 35 34 36 36 35 35 34 32 31 30 27 23 24 30 29 28 nan nan 28
21 19 20 19 18 17 17 16 14 14 14 13 13 12 12 13 13 14 15 15 16 17 19 19 21 22 22 nan 21 20 nan nan 20 21 22 22 nan nan nan 22 22 nan nan 24 24 24 25 26 28 28 29 29 29 30 30 30 30 30 30 32 33 35 36 36 36 35 37 36 36 36 36 36 36 36 34 35 31 27 25 nan nan nan nan nan 32
22 23 22 20 19 19 18 19 18 17 16 16 15 16 15 15 16 17 17 17 18 19 20 21 23 24 nan nan nan 23 23 23 24 23 22 22 24 24 25 nan nan nan 23 25 26 26 28 28 28 29 29 29 29 29 29 30 30 32 33 34 35 36 35 37 37 37 38 37 38 39 38 37 38 37 38 37 33 31 28 26 nan nan nan nan nan
20 22 21 21 21 21 20 20 21 21 19 19 19 19 19 19 19 20 20 20 21 22 23 23 24 nan nan nan nan nan nan 26 nan 24 24 24 26 26 nan nan nan nan 25 25 27 28 29 28 29 29 29 29 30 30 31 31 32 34 35 35 36 36 37 37 37 38 39 39 40 41 41 41 41 40 39 38 36 33 30 nan nan nan nan nan nan
19 20 19 19 19 20 21 20 23 24 23 22 22 23 23 23 24 24 23 23 23 24 25 25 nan nan nan nan nan nan nan 26 nan nan 26 27 28 29 nan nan nan 26 27 27 29 30 28 27 28 29 29 29 29 31 32 33 34 35 35 35 36 37 37 38 39 38 40 40 41 42 42 42 42 42 41 41 38 35 32 nan nan nan nan nan nan
17 15 15 17 19 21 22 22 23 25 26 27 25 25 26 26 27 28 26 25 25 26 27 nan nan nan nan nan nan nan 27 nan nan nan nan nan nan nan nan nan 30 nan 29 32 30 29 28 29 29 29 29 29 30 32 33 34 35 35 35 35 36 37 38 39 40 39 41 42 42 43 45 44 43 43 44 42 41 39 35 nan nan nan nan nan nan
18 16 16 18 20 21 23 24 25 25 28 29 28 27 27 27 28 28 27 26 26 26 nan nan nan nan 24 nan nan 27 nan nan nan nan nan nan nan nan nan nan nan nan nan 32 30 29 28 29 30 30 30 30 31 33 34 35 36 36 36 36 36 36 38 40 41 41 42 42 44 44 45 46 44 45 45 44 42 40 37 33 nan nan nan nan nan
22 19 18 19 21 23 23 23 24 25 28 30 29 28 27 27 28 27 27 25 25 25 nan nan nan nan 22 nan nan nan nan nan nan nan nan nan nan nan nan nan nan nan nan nan 30 29 29 29 30 31 32 32 33 34 35 36 36 38 38 39 37 37 38 40 40 41 41 42 44 45 45 45 45 46 48 45 43 40 37 34 32 nan nan nan nan
25 20 17 18 21 23 22 21 22 24 27 28 29 29 28 28 28 28 29 27 25 24 22 23 23 23 22 23 nan nan 27 nan 30 30 nan nan nan nan nan nan nan nan nan 32 30 30 29 30 30 31 32 33 34 35 36 37 38 39 38 39 37 38 39 39 39 41 41 42 44 45 46 44 45 45 46 44 43 39 36 35 35 nan nan nan nan
25 22 19 22 22 22 22 22 21 23 25 26 29 30 31 30 29 28 27 26 25 24 23 24 24 24 23 nan nan 26 28 nan nan nan nan nan nan nan nan nan nan nan nan 32 nan nan 30 31 31 31 31 32 33 35 37 38 39 39 39 39 38 38 39 39 40 42 42 42 44 46 47 46 45 45 43 42 40 39 37 nan nan nan 34 nan nan
29 26 27 31 31 28 24 23 24 25 26 27 28 29 31 32 32 32 29 28 25 25 25 25 26 25 25 26 26 27 nan nan nan nan nan nan nan nan nan nan nan nan 31 31 31 30 nan 31 32 32 32 32 33 34 37 38 39 39 39 39 39 40 40 39 40 42 42 44 45 45 46 45 44 45 43 41 39 37 nan nan nan nan 38 nan nan
27 26 29 32 32 29 27 26 25 26 27 28 28 29 30 30 32 33 32 31 29 27 27 26 26 25 26 28 28 27 nan nan nan nan nan nan nan nan nan nan nan nan 30 31 nan nan nan nan 33 33 33 33 34 36 38 39 40 40 40 40 39 40 41 40 40 42 41 44 45 45 45 45 44 43 41 40 38 nan nan nan nan nan nan nan nan
31 31 33 35 33 31 29 26 26 26 26 26 28 28 30 31 32 31 29 29 28 29 30 31 29 28 28 28 28 28 nan nan nan nan nan nan nan nan nan nan nan nan nan nan nan nan nan nan nan nan 34 nan 36 37 39 39 40 40 40 39 38 40 40 40 39 40 41 43 44 43 43 44 43 42 40 39 nan nan nan nan nan nan nan nan nan
33 35 35 34 32 29 26 24 24 25 25 25 25 27 29 31 31 32 32 31 30 30 32 32 32 30 31 31 30 29 29 nan nan nan nan nan nan nan nan nan nan nan nan nan nan nan nan nan nan nan nan nan nan 36 36 37 38 39 39 39 39 41 41 40 41 40 42 44 45 45 44 44 43 41 39 39 nan 38 nan nan nan nan nan nan nan
35 34 33 31 29 29 26 23 22 23 23 25 25 26 29 30 31 32 31 30 31 31 32 33 33 32 33 32 31 30 30 nan nan nan nan nan nan nan nan nan nan nan nan nan nan nan nan nan nan nan nan nan nan 38 37 38 39 40 40 41 41 41 41 41 42 41 42 43 44 44 43 43 42 39 nan nan nan nan nan nan nan nan nan nan nan
36 35 33 31 30 29 28 27 26 25 25 26 27 28 29 31 32 32 33 32 32 32 32 33 33 33 33 33 32 31 31 30 nan nan nan nan nan nan nan nan nan nan nan nan nan nan nan nan nan nan nan nan nan 40 40 41 41 42 41 41 41 42 43 43 42 42 42 43 43 nan 43 42 40 37 nan nan nan nan nan nan nan nan nan nan nan
37 37 34 30 27 25 24 24 23 22 22 25 27 28 29 30 32 33 33 34 34 33 32 32 32 32 33 34 34 32 32 31 nan nan nan nan nan nan nan nan nan nan nan nan nan nan nan nan nan nan nan nan nan 40 41 42 42 42 42 42 42 43 43 43 43 42 42 43 43 42 41 41 38 35 nan nan nan nan nan nan nan nan nan nan nan
37 35 33 27 23 22 22 24 25 24 24 26 27 29 30 30 31 32 33 34 34 34 32 31 32 32 33 35 34 33 32 30 28 nan 31 34 33 32 nan nan nan nan nan nan nan nan nan nan nan nan nan nan nan 41 42 42 43 43 43 43 43 43 43 43 42 nan 41 nan 42 42 41 39 37 34 32 nan nan nan nan nan nan nan nan nan nan
35 33 33 29 22 20 21 23 24 25 27 28 29 30 30 30 30 31 32 33 33 33 32 32 32 32 32 34 33 32 32 31 29 29 32 34 34 nan nan nan nan nan nan nan nan nan nan nan nan nan nan nan nan 42 43 43 43 43 43 43 43 42 41 41 41 nan nan nan nan 40 40 38 36 35 nan nan nan nan nan nan nan nan nan 32 nan
34 34 33 26 21 21 23 24 26 27 27 29 31 32 31 31 31 30 31 32 32 32 33 34 32 32 31 32 32 31 31 30 29 31 34 nan nan nan nan nan nan nan nan nan nan nan nan nan nan nan nan nan nan nan nan 42 41 42 43 43 42 41 39 39 39 nan nan nan 39 39 39 38 37 nan nan nan nan nan nan nan nan nan nan 32 nan
30 29 29 28 27 27 26 26 27 27 29 30 31 33 34 33 32 31 31 31 32 33 34 34 33 31 30 30 30 30 29 29 29 32 34 nan nan nan nan nan nan nan nan nan nan nan nan nan nan nan nan nan nan nan nan nan 41 42 43 42 42 40 39 38 37 nan 36 36 37 38 nan nan nan nan nan nan nan nan nan nan nan nan 31 32 31
29 29 31 32 32 31 31 31 30 32 34 34 33 32 31 31 31 32 31 31 33 35 34 33 32 30 28 28 29 28 28 29 30 32 nan nan nan nan nan nan nan nan nan nan nan nan nan nan nan nan nan nan nan nan nan nan 42 41 41 41 40 40 39 37 36 35 35 35 nan nan nan nan nan 34 nan nan nan nan nan nan nan 33 33 33 32
32 35 37 38 37 35 34 34 34 36 38 37 35 34 34 34 33 33 32 33 35 34 34 32 30 28 27 27 29 29 30 30 30 nan nan nan nan nan nan nan nan nan nan nan nan nan nan nan nan nan nan nan nan nan 41 43 43 42 41 40 40 40 39 38 36 33 32 nan nan nan nan 35 35 33 32 30 29 29 31 33 32 33 34 34 34
33 34 36 37 36 36 35 35 36 39 41 40 39 37 36 35 34 34 34 35 36 35 33 31 28 27 28 29 30 29 30 31 31 32 nan nan nan nan nan nan nan nan nan nan nan nan nan nan nan nan nan nan nan nan nan 43 43 43 41 40 40 40 39 38 36 33 nan nan nan nan 36 35 34 32 31 29 28 28 28 31 32 32 34 36 35
33 34 37 37 37 38 38 38 37 38 40 40 38 37 37 36 35 35 34 36 36 34 32 30 29 29 30 30 30 30 30 30 32 33 nan nan nan nan nan nan nan nan nan nan nan nan nan nan nan nan nan nan nan nan nan nan nan 39 39 40 40 39 38 37 35 32 31 nan nan 33 35 36 35 34 33 32 29 28 28 28 30 32 32 34 36
37 39 41 43 41 38 39 40 39 40 41 40 41 40 38 37 36 35 36 37 36 35 33 31 30 30 30 30 29 30 30 31 32 34 nan nan nan nan nan nan nan nan nan nan 42 nan nan nan nan nan nan nan nan nan nan nan nan nan nan 40 39 37 36 36 35 32 31 32 34 34 34 34 35 31 32 32 31 30 28 28 30 31 32 35 36
39 42 46 45 39 36 37 40 41 42 44 43 42 41 39 38 38 37 38 37 38 36 34 31 30 31 31 30 29 30 30 31 34 35 37 nan nan nan nan nan nan nan 43 44 46 47 46 46 46 46 nan nan nan nan nan nan nan nan nan nan nan nan 35 35 35 33 33 34 36 37 34 33 33 34 33 nan nan nan nan 30 31 32 33 33 34
44 45 46 44 41 41 42 40 39 42 42 42 40 39 40 39 38 38 37 39 38 37 34 33 33 33 33 29 29 29 31 32 34 36 38 38 39 nan nan nan 44 44 44 45 46 45 44 44 42 40 nan nan nan nan nan nan nan nan nan nan nan nan nan nan 35 35 35 36 37 37 35 33 32 32 32 33 nan nan 31 31 31 31 32 nan nan
47 48 46 45 46 46 46 43 43 45 44 44 43 42 43 40 39 40 39 39 39 39 37 36 36 34 30 29 28 29 32 34 35 37 38 39 nan nan nan 42 41 40 40 43 45 46 46 46 44 41 44 48 nan nan nan nan nan nan nan nan nan nan nan nan nan 35 35 37 37 37 35 33 33 32 29 29 nan 32 33 32 31 nan nan nan nan
47 47 44 43 43 43 42 44 47 47 47 46 45 44 44 45 42 41 42 41 45 44 39 37 30 29 26 27 28 30 32 34 36 38 38 nan 40 39 39 40 39 39 41 45 48 48 47 47 44 41 43 nan nan 40 39 nan nan nan nan nan nan nan nan nan nan 35 35 36 37 36 34 33 32 32 nan nan 33 36 nan nan nan nan nan nan nan
45 38 37 40 41 41 43 47 48 47 47 48 49 48 48 48 48 46 45 42 43 41 37 35 29 27 26 28 29 32 34 36 38 38 39 39 41 41 39 39 41 42 45 48 49 48 47 47 43 40 42 42 37 nan nan nan nan nan nan nan nan nan nan 35 33 35 35 35 34 31 32 34 nan nan nan nan 36 nan nan nan nan nan nan nan nan
44 43 40 40 41 44 44 44 45 45 46 50 52 54 56 56 53 47 44 44 37 36 33 31 28 27 28 29 31 33 35 38 39 39 40 42 46 45 42 42 43 45 46 47 47 48 46 39 34 33 38 42 37 32 nan nan nan nan nan 37 nan 38 36 33 34 34 nan nan nan nan nan nan nan nan nan nan nan nan nan nan nan nan nan nan 29
49 47 46 43 42 44 43 44 44 44 48 50 52 58 62 62 56 48 42 38 34 31 29 28 28 29 30 31 33 35 37 38 38 39 42 45 45 45 42 42 43 45 45 48 51 54 53 48 nan nan 41 41 37 35 37 nan nan 38 42 nan nan 38 35 35 37 36 nan nan nan nan nan nan nan nan nan nan nan nan nan nan nan nan nan 26 nan
56 52 47 45 42 43 44 44 44 48 52 51 47 47 55 51 43 40 38 33 30 29 29 30 30 30 30 32 34 36 37 38 39 40 41 44 45 45 45 45 44 45 47 48 49 50 49 46 46 nan nan 40 33 nan 39 40 38 43 50 49 nan nan 36 38 38 36 nan nan nan nan nan nan nan nan nan nan nan nan nan nan nan nan nan nan nan
53 48 43 43 44 47 48 48 48 54 56 55 53 49 46 43 34 25 23 26 30 29 29 30 30 29 31 33 36 38 39 39 39 41 44 45 45 45 45 46 46 48 50 50 51 52 50 48 51 nan nan nan nan 34 37 39 45 54 57 52 44 38 38 39 37 nan nan nan nan nan nan nan nan nan nan nan nan nan nan 33 nan nan nan nan nan
49 43 39 43 43 44 45 45 45 49 51 53 50 45 44 37 27 13 14 25 29 29 29 28 27 29 32 37 41 41 41 41 41 42 45 44 43 43 45 46 47 50 53 53 53 54 53 52 53 nan nan nan nan nan nan 48 53 58 58 51 45 42 39 38 37 nan nan nan nan nan nan nan nan nan nan nan nan nan nan nan nan nan nan nan nan
43 41 42 45 44 44 46 45 47 47 48 51 50 46 42 31 23 19 21 23 25 26 24 22 25 28 33 40 42 42 42 42 43 43 44 45 43 44 45 46 49 53 54 53 53 54 55 55 54 nan nan nan nan nan nan 54 55 56 55 52 47 41 40 37 nan nan nan nan nan nan nan nan nan nan nan nan nan nan nan nan nan nan nan nan nan
43 43 42 43 44 43 42 43 42 45 46 48 47 48 42 31 28 26 22 22 23 22 19 26 34 34 35 38 42 43 42 42 42 44 45 45 46 47 48 49 53 54 54 53 52 55 55 56 56 54 nan nan nan nan 54 55 57 58 55 51 46 41 nan nan nan nan nan nan nan nan nan nan nan nan nan nan nan nan nan nan nan nan nan nan nan
39 38 39 41 41 41 42 43 40 41 44 45 46 44 43 35 42 38 36 36 30 22 23 34 40 37 37 39 42 43 43 43 42 43 47 49 51 51 51 52 53 53 53 53 53 55 54 55 55 55 nan nan nan 55 56 56 56 55 52 49 45 nan 34 nan nan nan nan nan nan nan nan nan nan 29 30 nan nan nan nan nan nan nan nan nan nan
36 35 38 40 40 41 43 43 42 38 43 45 47 46 44 41 36 30 38 35 35 21 34 45 47 45 43 40 41 42 41 41 44 47 48 51 52 52 53 54 54 54 54 54 54 55 54 54 53 53 nan 54 54 56 56 56 55 53 51 48 43 39 36 35 nan nan nan nan nan nan nan nan nan nan nan 31 33 nan nan nan nan nan nan nan nan
34 35 36 38 39 42 43 43 42 40 41 43 44 46 45 42 40 26 36 38 40 46 56 58 59 56 49 41 38 40 43 44 47 50 51 51 51 53 54 54 55 55 55 53 54 53 53 54 52 52 52 52 53 55 55 55 53 51 48 45 42 40 38 37 nan nan nan nan nan nan nan 34 nan nan nan nan nan nan nan nan nan nan nan nan nan
36 36 37 39 39 40 41 43 42 39 41 42 43 43 43 45 42 37 43 48 53 57 61 62 57 51 43 38 38 41 45 49 51 50 49 50 50 51 52 51 52 52 51 51 51 51 53 53 52 50 50 48 49 51 50 51 49 48 44 nan nan 39 37 nan nan nan nan nan nan nan nan nan nan nan nan nan nan nan nan nan nan nan nan nan nan
34 36 37 38 38 41 43 45 43 39 39 40 42 43 45 nan nan nan 45 49 54 59 58 54 48 42 39 40 43 46 49 51 51 51 53 53 53 53 50 48 51 53 52 50 51 51 51 52 52 48 48 48 46 46 52 51 47 44 41 38 36 35 34 nan nan nan nan nan nan nan nan nan nan nan nan nan nan nan nan nan nan nan nan nan nan
35 37 38 40 41 41 43 44 44 44 43 nan nan nan nan nan nan nan nan 47 52 55 50 45 43 42 43 45 48 52 52 51 51 53 54 55 53 52 54 54 52 51 49 47 47 45 44 nan nan 47 45 43 46 50 50 46 42 37 36 35 33 32 33 nan nan nan nan nan nan nan nan nan nan nan nan nan nan nan nan nan nan nan nan nan nan
Wind_Direction
343 353 334 332 319 307 299 302 319 324 336 330 333 334 321 324 335 351 2 3 4 7 10 6 3 2 1 4 5 7 8 8 2 352 351 354 351 349 342 334 339 343 346 340 344 343 341 341 339 336 328 325 325 329 331 333 334 335 335 334 335 333 331 332 333 332 333 336 335 339 341 341 341 335 330 318 303 290 280 270 266 266 265 258 253
328 326 325 313 299 307 300 303 317 328 19 351 344 350 340 333 340 350 356 359 5 5 7 7 6 4 358 3 0 2 8 7 13 10 8 347 338 334 336 339 343 346 346 344 341 342 341 338 333 331 323 323 326 327 329 333 331 331 327 324 327 328 329 328 329 326 326 330 330 332 335 336 337 334 331 317 304 294 285 276 267 265 267 265 258
332 335 331 326 317 318 316 334 359 356 13 10 3 347 347 347 347 344 350 351 357 357 352 357 357 356 350 357 352 358 2 360 356 354 347 341 343 343 339 343 344 341 342 341 339 336 335 333 336 332 329 327 324 325 324 325 328 328 324 325 326 325 328 330 330 325 326 325 330 330 327 323 325 322 318 312 307 302 292 281 271 265 261 261 259
332 335 337 329 325 324 319 331 347 345 14 17 1 351 348 343 342 335 336 337 341 344 339 342 341 344 345 346 349 340 347 338 329 330 nan 323 327 331 335 336 338 341 339 338 334 333 334 334 333 331 329 328 327 326 323 321 321 322 323 325 323 323 322 323 323 324 322 320 320 322 326 324 325 325 320 319 313 300 293 282 274 270 266 262 262
328 331 332 329 325 328 328 325 308 323 347 358 351 343 334 335 331 325 323 327 330 331 328 328 328 327 329 323 325 319 310 310 nan nan 325 324 319 321 328 330 333 334 332 330 328 329 330 331 329 330 329 326 323 321 320 320 321 322 323 322 324 322 320 321 320 318 319 322 322 320 321 323 324 326 318 320 309 294 287 281 275 270 268 268 263
326 330 333 332 328 320 313 310 307 309 325 329 320 312 305 314 312 312 311 316 323 324 324 323 326 326 323 322 324 325 324 324 nan nan nan 320 322 325 325 327 327 327 328 329 326 328 327 329 327 327 326 324 323 321 321 320 320 321 323 323 322 322 319 319 320 318 321 323 324 318 319 323 322 320 318 315 311 310 301 289 281 270 265 262 260
322 323 322 322 323 317 319 318 313 314 316 293 289 294 302 306 308 309 311 312 316 318 319 317 316 319 324 326 324 326 323 324 nan nan nan nan 322 nan nan 328 nan nan 326 324 325 322 324 327 327 326 324 324 323 322 321 322 323 323 319 318 320 317 315 317 319 320 317 317 317 320 322 321 321 320 318 315 307 301 295 286 280 277 272 265 262
322 324 323 319 319 320 323 323 314 315 303 295 295 291 302 304 302 303 301 306 309 312 313 313 314 316 315 315 317 317 316 319 322 nan 320 320 nan nan nan 323 321 nan 319 316 317 317 323 325 322 321 321 324 324 323 322 322 320 319 319 318 317 316 317 318 320 318 317 319 318 320 322 322 322 321 322 317 312 302 289 289 289 278 nan nan 264
323 321 323 320 320 318 313 312 310 303 298 300 300 297 295 293 294 290 297 300 304 310 312 312 311 313 311 nan 311 312 nan nan 313 311 312 312 nan nan nan 313 316 nan nan 315 314 312 314 317 318 316 317 320 321 321 322 320 319 317 316 315 315 316 318 318 317 319 319 321 318 317 317 318 318 321 317 314 313 304 296 nan nan nan nan nan 269
319 321 322 321 317 316 314 305 301 299 298 299 294 289 288 286 290 293 296 298 301 308 310 312 311 308 nan nan nan 308 305 305 304 308 310 312 311 313 311 nan nan nan 315 315 312 310 311 311 313 316 318 318 318 319 319 318 316 316 316 316 315 316 318 317 319 321 321 321 319 319 317 318 319 315 314 315 314 313 301 284 nan nan nan nan nan
316 313 317 323 321 318 310 307 303 297 295 295 291 292 290 291 292 296 300 297 301 305 306 310 309 nan nan nan nan nan nan 306 nan 307 304 306 309 311 nan nan nan nan 315 314 307 310 307 310 314 317 317 316 316 317 317 317 316 316 315 314 314 315 317 319 320 321 321 320 320 320 321 320 319 318 318 315 313 309 300 nan nan nan nan nan nan
324 316 319 322 316 315 312 308 301 302 297 296 293 292 292 293 293 296 294 297 298 300 302 305 nan nan nan nan nan nan nan 304 nan nan 309 310 311 312 nan nan nan 312 312 311 310 308 309 309 310 311 312 314 317 318 317 316 317 316 314 314 314 315 316 317 319 321 321 321 321 321 322 320 319 319 318 316 314 310 301 nan nan nan nan nan nan
327 326 320 318 319 318 316 310 304 301 302 303 300 298 296 295 297 298 299 296 298 296 300 nan nan nan nan nan nan nan 306 nan nan nan nan nan nan nan nan nan 311 nan 312 312 314 314 311 308 308 310 312 315 318 317 319 318 317 316 316 315 316 316 317 318 319 321 321 321 324 322 321 320 321 320 317 315 313 311 307 nan nan nan nan nan nan
338 326 320 319 315 315 315 310 309 305 304 306 306 303 299 297 300 304 304 300 297 296 nan nan nan nan 307 nan nan 308 nan nan nan nan nan nan nan nan nan nan nan nan nan 316 317 315 312 311 311 314 316 316 316 318 319 319 319 318 317 317 317 318 317 319 321 322 322 323 322 321 321 322 322 319 319 316 313 308 305 298 nan nan nan nan nan
329 321 320 320 319 318 317 312 309 310 309 308 308 308 306 304 306 310 307 305 303 301 nan nan nan nan 306 nan nan nan nan nan nan nan nan nan nan nan nan nan nan nan nan nan 316 315 314 312 313 314 315 316 316 318 320 320 319 317 318 317 318 319 320 320 322 322 322 322 322 323 323 322 322 320 319 318 314 311 304 297 285 nan nan nan nan
331 334 331 327 325 322 318 313 310 309 312 310 312 312 312 311 312 316 318 316 310 303 305 309 310 307 306 309 nan nan 305 nan 304 303 nan nan nan nan nan nan nan nan nan 315 317 315 313 314 315 315 315 316 317 319 321 320 319 319 319 318 320 319 321 323 324 322 323 323 323 323 321 323 322 322 320 319 316 312 305 295 287 nan nan nan nan
339 344 344 340 332 327 322 316 308 306 308 313 317 317 317 312 314 317 317 314 311 307 308 308 308 309 312 nan nan 308 306 nan nan nan nan nan nan nan nan nan nan nan nan 315 nan nan 314 315 316 315 315 316 317 319 320 320 319 320 321 321 322 323 323 324 323 322 324 323 323 323 324 324 323 321 319 319 316 309 303 nan nan nan 280 nan nan
346 348 344 341 337 332 324 317 313 313 314 314 319 316 313 313 315 317 317 318 314 309 309 309 309 312 313 314 311 309 nan nan nan nan nan nan nan nan nan nan nan nan 316 317 315 316 nan 317 315 313 314 315 317 318 319 320 320 322 323 324 325 324 323 323 323 324 325 323 323 323 323 324 323 321 321 319 315 310 nan nan nan nan 286 nan nan
336 335 332 331 329 326 323 320 316 314 313 316 315 312 310 310 313 317 320 320 317 313 311 310 311 310 310 313 312 308 nan nan nan nan nan nan nan nan nan nan nan nan 316 316 nan nan nan nan 313 313 313 315 317 319 319 320 321 322 323 326 325 324 323 324 325 324 325 324 323 324 323 324 323 321 320 317 315 nan nan nan nan nan nan nan nan
329 330 328 328 326 325 325 320 313 310 311 312 314 310 314 313 313 314 313 311 310 311 311 313 316 312 310 308 308 308 nan nan nan nan nan nan nan nan nan nan nan nan nan nan nan nan nan nan nan nan 314 nan 318 319 319 320 320 322 324 326 326 324 324 324 325 323 323 323 324 324 324 324 324 320 318 317 nan nan nan nan nan nan nan nan nan
325 327 326 324 323 324 325 323 318 311 307 306 310 316 315 310 312 313 315 315 315 313 312 313 312 313 310 310 308 308 311 nan nan nan nan nan nan nan nan nan nan nan nan nan nan nan nan nan nan nan nan nan nan 318 318 320 322 324 325 326 325 324 325 325 324 325 324 325 325 325 325 326 323 320 318 317 nan 313 nan nan nan nan nan nan nan
322 323 323 322 322 325 325 319 307 306 309 314 313 309 309 312 313 312 312 314 315 313 313 311 310 310 311 309 309 308 307 nan nan nan nan nan nan nan nan nan nan nan nan nan nan nan nan nan nan nan nan nan nan 319 322 323 324 325 325 325 326 325 325 325 325 326 326 325 325 325 326 326 323 321 nan nan nan nan nan nan nan nan nan nan nan
320 320 321 320 320 322 322 322 323 325 324 320 314 314 315 314 311 311 314 315 314 312 309 307 306 308 310 308 307 306 303 306 nan nan nan nan nan nan nan nan nan nan nan nan nan nan nan nan nan nan nan nan nan 322 324 325 325 325 326 326 326 325 324 326 327 328 328 325 324 nan 327 326 322 319 nan nan nan nan nan nan nan nan nan nan nan
315 318 318 318 318 317 318 323 323 321 317 320 321 318 314 312 312 310 313 313 310 307 305 304 305 306 307 305 306 304 307 310 nan nan nan nan nan nan nan nan nan nan nan nan nan nan nan nan nan nan nan nan nan 324 325 325 327 328 328 328 326 325 325 326 327 328 327 325 326 326 326 325 322 319 nan nan nan nan nan nan nan nan nan nan nan
307 311 312 310 311 317 324 327 327 326 324 322 320 320 317 314 310 310 310 308 306 303 304 305 304 305 305 305 306 308 311 311 309 nan 311 311 313 317 nan nan nan nan nan nan nan nan nan nan nan nan nan nan nan 326 327 328 328 328 328 327 326 325 325 326 327 nan 326 nan 326 326 326 323 321 319 315 nan nan nan nan nan nan nan nan nan nan
310 307 308 316 321 321 321 326 326 324 323 322 322 321 318 313 312 308 305 305 305 304 306 303 302 304 305 307 310 310 312 311 308 309 313 312 314 nan nan nan nan nan nan nan nan nan nan nan nan nan nan nan nan 327 329 330 330 328 326 325 325 325 325 324 324 nan nan nan nan 327 325 323 320 318 nan nan nan nan nan nan nan nan nan 308 nan
306 306 311 308 308 325 329 327 326 324 323 322 322 322 318 314 312 308 304 304 303 304 303 301 301 304 306 311 311 313 311 307 307 311 309 nan nan nan nan nan nan nan nan nan nan nan nan nan nan nan nan nan nan nan nan 329 327 326 326 324 324 324 323 322 322 nan nan nan 327 326 324 322 321 nan nan nan nan nan nan nan nan nan nan 309 nan
307 302 306 316 325 325 324 325 323 324 325 323 322 321 319 316 313 308 304 303 301 301 300 299 301 305 311 313 310 311 308 305 305 306 305 nan nan nan nan nan nan nan nan nan nan nan nan nan nan nan nan nan nan nan nan nan 326 326 325 324 324 323 322 320 320 nan 324 326 327 326 nan nan nan nan nan nan nan nan nan nan nan nan 311 310 310
321 322 320 317 317 319 321 321 323 323 325 324 321 319 314 311 308 305 303 304 298 298 298 301 305 309 311 308 305 304 303 304 306 304 nan nan nan nan nan nan nan nan nan nan nan nan nan nan nan nan nan nan nan nan nan nan 324 325 324 324 323 322 321 320 319 321 323 325 nan nan nan nan nan 321 nan nan nan nan nan nan nan 313 313 314 312
318 318 316 311 312 315 319 320 319 321 321 319 319 319 317 315 311 307 305 301 296 298 302 307 309 307 305 302 302 301 301 302 303 nan nan nan nan nan nan nan nan nan nan nan nan nan nan nan nan nan nan nan nan nan 323 327 326 324 324 324 323 321 319 319 319 320 322 nan nan nan nan 322 322 322 321 322 321 321 323 320 318 316 317 316 316
310 311 315 312 309 311 314 317 319 319 319 318 319 318 316 314 311 309 306 302 299 302 307 308 307 304 302 299 297 300 302 305 306 304 nan nan nan nan nan nan nan nan nan nan nan nan nan nan nan nan nan nan nan nan nan 325 329 333 326 324 323 322 319 319 319 319 nan nan nan nan 318 316 316 316 315 319 320 321 322 325 328 328 323 320 317
307 314 318 316 312 309 311 316 317 317 317 316 314 313 311 312 308 306 303 299 300 303 305 305 303 301 298 297 300 300 301 304 302 303 nan nan nan nan nan nan nan nan nan nan nan nan nan nan nan nan nan nan nan nan nan nan nan 333 331 325 322 320 319 318 317 316 317 nan nan 320 316 312 310 312 312 313 314 317 320 323 326 328 329 328 326
309 313 316 315 312 311 313 314 313 313 314 317 316 311 311 308 304 303 296 296 298 299 298 300 300 299 298 299 299 300 301 301 302 302 nan nan nan nan nan nan nan nan nan nan 325 nan nan nan nan nan nan nan nan nan nan nan nan nan nan 329 323 320 319 319 315 311 310 315 320 320 316 311 309 313 311 310 309 307 311 320 325 326 325 326 326
306 310 312 311 306 303 308 310 311 314 316 316 312 311 308 302 299 295 296 295 293 293 296 297 294 295 295 296 298 299 299 300 299 298 299 nan nan nan nan nan nan nan 323 326 325 325 325 325 324 323 nan nan nan nan nan nan nan nan nan nan nan nan 315 317 314 308 305 311 317 318 315 311 309 306 306 nan nan nan nan 310 313 313 314 319 322
304 304 303 299 296 298 301 301 305 310 307 301 300 295 291 291 291 291 289 290 292 292 289 288 287 285 284 289 294 296 297 297 296 298 300 304 308 nan nan nan 316 323 327 328 329 330 331 330 329 327 nan nan nan nan nan nan nan nan nan nan nan nan nan nan 314 308 305 308 312 315 314 314 310 306 306 307 nan nan 306 308 310 312 313 nan nan
297 301 302 298 295 298 302 306 306 304 303 302 300 294 292 291 288 289 289 290 289 286 283 279 278 276 283 289 292 295 296 296 298 299 302 307 nan nan nan 314 318 323 324 324 326 326 328 327 325 324 326 327 nan nan nan nan nan nan nan nan nan nan nan nan nan 308 305 306 309 312 313 313 311 308 309 312 nan 307 307 308 310 nan nan nan nan
298 300 302 301 300 300 304 301 300 302 302 300 294 292 290 287 286 282 280 277 277 275 273 276 280 288 290 290 294 297 298 299 300 301 306 nan 311 314 315 312 315 319 320 323 324 324 324 326 323 321 327 nan nan 322 323 nan nan nan nan nan nan nan nan nan nan 306 304 304 306 308 311 311 308 307 nan nan 309 307 nan nan nan nan nan nan nan
296 294 292 294 296 296 294 298 300 301 301 296 295 295 293 290 283 279 278 279 282 283 281 289 293 291 293 295 299 302 303 302 301 307 311 313 306 301 304 306 310 314 320 324 325 324 326 328 325 321 325 330 327 nan nan nan nan nan nan nan nan nan nan 302 303 303 303 303 305 310 309 308 nan nan nan nan 306 nan nan nan nan nan nan nan nan
290 293 294 294 295 297 295 292 293 297 296 297 299 300 295 288 282 277 272 273 276 280 282 286 292 295 298 302 305 304 305 305 306 311 311 302 302 311 313 309 309 312 318 321 320 316 313 315 311 307 324 330 324 314 nan nan nan nan nan 319 nan 309 303 301 301 301 nan nan nan nan nan nan nan nan nan nan nan nan nan nan nan nan nan nan 305
280 283 289 289 285 285 288 293 299 300 297 298 299 298 291 284 278 273 275 280 279 279 286 289 292 298 303 305 304 304 303 305 308 302 299 305 306 305 307 305 305 309 314 312 313 317 322 328 nan nan 324 325 317 306 308 nan nan 320 330 nan nan 307 305 301 299 300 nan nan nan nan nan nan nan nan nan nan nan nan nan nan nan nan nan 308 nan
281 280 280 281 283 286 286 282 279 277 274 272 275 280 275 264 265 270 267 267 273 276 283 288 292 298 301 301 298 298 299 297 297 302 300 294 295 298 298 299 298 301 306 310 314 313 315 317 318 nan nan 313 305 nan 307 307 307 321 327 322 nan nan 303 300 300 298 nan nan nan nan nan nan nan nan nan nan nan nan nan nan nan nan nan nan nan
272 271 274 277 279 282 284 285 286 287 288 291 298 303 292 276 264 247 252 268 270 275 283 288 291 296 296 292 290 287 290 295 295 293 292 293 297 299 297 295 299 304 308 311 312 313 314 317 316 nan nan nan nan 300 304 303 306 314 320 319 312 307 301 300 298 nan nan nan nan nan nan nan nan nan nan nan nan nan nan 312 nan nan nan nan nan
272 272 276 280 278 278 276 275 276 278 284 292 301 310 308 291 261 247 273 279 281 279 283 288 291 295 294 287 284 289 290 290 293 294 294 296 294 295 297 298 304 307 309 311 310 309 312 314 315 nan nan nan nan nan nan 307 308 311 314 314 311 305 301 298 299 nan nan nan nan nan nan nan nan nan nan nan nan nan nan nan nan nan nan nan nan
266 271 276 275 274 276 277 278 280 282 288 297 305 315 318 291 251 246 275 285 281 279 279 291 300 301 295 287 285 285 287 289 292 292 291 294 297 297 298 301 302 305 307 309 309 311 312 313 313 nan nan nan nan nan nan 314 312 312 309 313 312 309 301 298 nan nan nan nan nan nan nan nan nan nan nan nan nan nan nan nan nan nan nan nan nan
273 275 277 278 281 282 280 279 281 283 288 294 301 313 317 295 252 249 275 290 293 283 285 305 311 308 301 292 282 282 285 287 289 292 295 299 303 304 302 301 302 303 305 308 310 311 312 312 311 312 nan nan nan nan 309 312 313 309 311 313 313 309 nan nan nan nan nan nan nan nan nan nan nan nan nan nan nan nan nan nan nan nan nan nan nan
277 277 279 280 280 282 283 283 283 284 288 292 295 308 316 286 247 248 263 270 259 250 277 304 309 304 300 294 284 281 284 287 294 299 303 306 308 307 305 303 303 306 308 310 313 313 312 311 311 310 nan nan nan 308 308 308 309 310 311 315 312 nan 297 nan nan nan nan nan nan nan nan nan nan 292 292 nan nan nan nan nan nan nan nan nan nan
284 284 285 285 285 286 287 286 284 284 288 293 294 298 303 290 262 244 265 268 273 281 291 301 305 304 302 296 287 285 287 292 299 302 301 303 303 303 304 304 305 308 309 311 312 311 310 310 309 308 nan 308 307 307 307 308 308 308 309 308 302 294 289 284 nan nan nan nan nan nan nan nan nan nan nan 293 293 nan nan nan nan nan nan nan nan
277 280 281 282 284 288 288 286 287 289 290 295 296 297 302 300 285 269 267 276 290 294 297 299 300 301 301 296 290 295 296 299 301 300 299 300 302 302 304 306 308 309 309 310 310 309 309 308 307 306 306 306 307 307 307 309 309 307 305 302 296 292 288 287 nan nan nan nan nan nan nan 289 nan nan nan nan nan nan nan nan nan nan nan nan nan
274 275 279 283 285 285 287 287 289 291 292 293 295 296 299 297 293 292 284 283 285 288 288 291 295 296 295 291 291 292 296 299 296 290 290 292 296 298 301 302 299 300 303 307 307 307 307 307 307 307 307 307 307 310 311 308 306 305 304 nan nan 292 289 nan nan nan nan nan nan nan nan nan nan nan nan nan nan nan nan nan nan nan nan nan nan
273 274 277 279 280 285 288 288 290 290 291 294 296 294 293 nan nan nan 291 288 286 286 286 288 292 292 289 288 288 292 296 297 297 296 296 294 290 293 293 297 299 296 296 300 305 308 305 304 304 305 305 311 312 310 308 308 306 304 302 301 296 289 289 nan nan nan nan nan nan nan nan nan nan nan nan nan nan nan nan nan nan nan nan nan nan
280 280 280 284 287 289 290 292 294 294 294 nan nan nan nan nan nan nan nan 286 284 282 281 286 289 291 291 291 291 294 297 297 297 297 298 298 297 294 291 290 293 297 297 297 302 307 307 nan nan 308 303 304 309 311 311 309 305 303 303 304 302 301 295 nan nan nan nan nan nan nan nan nan nan nan nan nan nan nan nan nan nan nan nan nan nan